Location: Narrabri
(30.3170°S, 149.7830°E)
Time: 20:13:42
(UTC+11:00)

Envisat - Pass Details

Date: 09 October 2017
Orbit: 764 x 766 km, 98.2° (Epoch: 23 October)

Event Time Altitude Azimuth Distance (km) Brightness Sun altitude
Rises 22:55:17 0° 194° (SSW) 3,263 6.9 -44.4°
Reaches altitude 10° 22:59:04 10° 223° (SW) 2,326 6.1 -44.9°
Enters shadow 22:59:23 11° 226° (SW) 2,280 6.0 -44.9°
